Time,TemperatureF,DewpointF,PressureIn,WindDirection,WindDirectionDegrees,WindSpeedMPH,WindSpeedGustMPH,Humidity,HourlyPrecipIn,Conditions,Clouds,dailyrainin,SoftwareType,DateUTC
2013-01-03 00:04:00,37.6,32.4,30.37,NW,326,1.0,5.0,81,0.00,,,0.00,meteohub,2013-01-02 23:04:00,
2013-01-03 00:10:00,37.4,32.2,30.37,WNW,288,1.0,5.0,81,0.00,,,0.00,meteohub,2013-01-02 23:10:00,
2013-01-03 00:15:00,37.4,32.2,30.37,NNW,345,1.0,5.0,81,0.00,,,0.00,meteohub,2013-01-02 23:15:00,
2013-01-03 00:20:00,37.2,32.2,30.37,SW,229,1.0,4.0,82,0.00,,,0.00,meteohub,2013-01-02 23:20:00,
2013-01-03 00:25:00,37.2,32.2,30.37,SSE,158,0.0,4.0,82,0.00,,,0.00,meteohub,2013-01-02 23:25:00,
2013-01-03 00:30:00,37.2,32.2,30.37,NNE,20,0.0,3.0,82,0.00,,,0.00,meteohub,2013-01-02 23:30:00,
2013-01-03 00:35:00,37.2,32.2,30.37,WSW,246,1.0,2.0,82,0.00,,,0.00,meteohub,2013-01-02 23:35:00,
2013-01-03 00:40:00,37.4,32.4,30.37,NNW,341,1.0,2.0,82,0.00,,,0.00,meteohub,2013-01-02 23:40:00,
2013-01-03 00:45:00,37.2,32.2,30.37,SW,217,1.0,4.0,82,0.00,,,0.00,meteohub,2013-01-02 23:45:00,
2013-01-03 00:50:00,37.4,32.4,30.37,SSE,156,0.0,4.0,82,0.00,,,0.00,meteohub,2013-01-02 23:50:00,
2013-01-03 00:56:00,37.2,32.2,30.37,SW,236,1.0,4.0,82,0.00,,,0.00,meteohub,2013-01-02 23:56:00,
2013-01-03 01:01:00,37.2,32.2,30.37,SSW,205,2.0,4.0,82,0.00,,,0.00,meteohub,2013-01-03 00:01:00,
2013-01-03 01:06:00,37.2,32.5,30.37,SSE,159,0.0,2.0,83,0.00,,,0.00,meteohub,2013-01-03 00:06:00,
2013-01-03 01:11:00,37.2,32.5,30.36,WSW,252,1.0,4.0,83,0.00,,,0.00,meteohub,2013-01-03 00:11:00,
2013-01-03 01:16:00,37.2,32.5,30.36,SW,229,1.0,4.0,83,0.00,,,0.00,meteohub,2013-01-03 00:16:00,
2013-01-03 01:21:00,37.0,32.4,30.36,SW,222,0.0,4.0,83,0.00,,,0.00,meteohub,2013-01-03 00:21:00,
2013-01-03 01:26:00,37.0,32.4,30.36,SSW,202,2.0,2.0,83,0.00,,,0.00,meteohub,2013-01-03 00:26:00,
2013-01-03 01:32:00,37.0,32.4,30.36,North,355,0.0,6.0,83,0.00,,,0.00,meteohub,2013-01-03 00:32:00,
2013-01-03 01:37:00,37.0,32.4,30.36,ESE,107,0.0,6.0,83,0.00,,,0.00,meteohub,2013-01-03 00:37:00,
2013-01-03 01:42:00,36.9,32.5,30.36,NNE,13,1.0,4.0,84,0.00,,,0.00,meteohub,2013-01-03 00:42:00,
2013-01-03 01:47:00,36.9,32.5,30.37,SW,227,0.0,4.0,84,0.00,,,0.00,meteohub,2013-01-03 00:47:00,
2013-01-03 01:52:00,36.9,32.5,30.37,NNW,344,1.0,3.0,84,0.00,,,0.00,meteohub,2013-01-03 00:52:00,
2013-01-03 01:57:00,36.7,32.4,30.37,WNW,290,1.0,2.0,84,0.00,,,0.00,meteohub,2013-01-03 00:57:00,
2013-01-03 02:02:00,36.5,32.2,30.37,North,5,1.0,2.0,84,0.00,,,0.00,meteohub,2013-01-03 01:02:00,
2013-01-03 02:08:00,36.3,32.0,30.37,SSE,155,0.0,3.0,84,0.00,,,0.00,meteohub,2013-01-03 01:08:00,
2013-01-03 02:13:00,36.1,31.8,30.37,West,279,0.0,3.0,84,0.00,,,0.00,meteohub,2013-01-03 01:13:00,
2013-01-03 02:18:00,36.1,31.8,30.37,NNE,23,0.0,5.0,84,0.00,,,0.00,meteohub,2013-01-03 01:18:00,
2013-01-03 02:23:00,36.0,31.8,30.37,West,265,0.0,5.0,85,0.00,,,0.00,meteohub,2013-01-03 01:23:00,
2013-01-03 02:28:00,36.0,31.8,30.37,South,186,1.0,2.0,85,0.00,,,0.00,meteohub,2013-01-03 01:28:00,
2013-01-03 02:33:00,35.8,31.6,30.36,SSW,208,1.0,2.0,85,0.00,,,0.00,meteohub,2013-01-03 01:33:00,
2013-01-03 02:38:00,35.6,31.5,30.37,South,190,0.0,2.0,85,0.00,,,0.00,meteohub,2013-01-03 01:38:00,
2013-01-03 02:44:00,35.6,31.8,30.37,NNW,348,1.0,5.0,86,0.00,,,0.00,meteohub,2013-01-03 01:44:00,
2013-01-03 02:49:00,35.4,31.6,30.37,SSW,206,1.0,5.0,86,0.00,,,0.00,meteohub,2013-01-03 01:49:00,
2013-01-03 02:54:00,35.4,31.6,30.37,SE,134,1.0,6.0,86,0.00,,,0.00,meteohub,2013-01-03 01:54:00,
2013-01-03 03:10:00,35.2,31.5,30.37,SSE,166,1.0,4.0,86,0.00,,,0.00,meteohub,2013-01-03 02:10:00,
2013-01-03 03:20:00,35.1,31.3,30.37,NNW,344,1.0,4.0,86,0.00,,,0.00,meteohub,2013-01-03 02:20:00,
2013-01-03 03:25:00,35.1,31.6,30.37,NW,309,1.0,4.0,87,0.00,,,0.00,meteohub,2013-01-03 02:25:00,
2013-01-03 03:38:00,34.9,31.5,30.36,West,277,1.0,4.0,87,0.00,,,0.00,meteohub,2013-01-03 02:38:00,
2013-01-03 03:43:00,34.9,31.5,30.36,NNW,348,0.0,6.0,87,0.00,,,0.00,meteohub,2013-01-03 02:43:00,
2013-01-03 03:48:00,34.9,31.5,30.35,SE,128,0.0,6.0,87,0.00,,,0.00,meteohub,2013-01-03 02:48:00,
2013-01-03 03:53:00,34.9,31.5,30.35,NNE,22,1.0,6.0,87,0.00,,,0.00,meteohub,2013-01-03 02:53:00,
2013-01-03 03:58:00,34.9,31.5,30.35,WNW,288,0.0,5.0,87,0.00,,,0.00,meteohub,2013-01-03 02:58:00,
2013-01-03 04:04:00,34.7,31.3,30.35,WSW,251,1.0,5.0,87,0.00,,,0.00,meteohub,2013-01-03 03:04:00,
2013-01-03 04:09:00,34.7,31.3,30.35,East,89,1.0,6.0,87,0.00,,,0.00,meteohub,2013-01-03 03:09:00,
2013-01-03 04:14:00,34.7,31.3,30.35,WSW,243,1.0,6.0,87,0.00,,,0.00,meteohub,2013-01-03 03:14:00,
2013-01-03 04:19:00,34.9,31.5,30.35,SSW,208,4.0,8.0,87,0.00,,,0.00,meteohub,2013-01-03 03:19:00,
2013-01-03 04:24:00,34.9,31.5,30.35,North,0,2.0,8.0,87,0.00,,,0.00,meteohub,2013-01-03 03:24:00,
2013-01-03 04:30:00,34.7,31.3,30.35,NNW,347,1.0,8.0,87,0.00,,,0.00,meteohub,2013-01-03 03:30:00,
2013-01-03 04:37:00,34.7,31.3,30.35,SW,226,2.0,6.0,87,0.00,,,0.00,meteohub,2013-01-03 03:37:00,
2013-01-03 04:42:00,34.7,31.5,30.35,NNW,341,1.0,6.0,88,0.00,,,0.00,meteohub,2013-01-03 03:42:00,
2013-01-03 04:47:00,34.5,31.3,30.35,SSW,197,2.0,6.0,88,0.00,,,0.00,meteohub,2013-01-03 03:47:00,
2013-01-03 04:52:00,34.7,31.5,30.34,NNE,19,1.0,10.0,88,0.00,,,0.00,meteohub,2013-01-03 03:52:00,
2013-01-03 04:57:00,34.7,31.5,30.35,North,355,3.0,10.0,88,0.00,,,0.00,meteohub,2013-01-03 03:57:00,
2013-01-03 05:03:00,34.7,31.5,30.35,WNW,296,1.0,7.0,88,0.00,,,0.00,meteohub,2013-01-03 04:03:00,
2013-01-03 05:08:00,34.9,31.6,30.34,ENE,61,3.0,10.0,88,0.00,,,0.00,meteohub,2013-01-03 04:08:00,
2013-01-03 05:13:00,34.9,31.6,30.34,NW,322,4.0,10.0,88,0.00,,,0.00,meteohub,2013-01-03 04:13:00,
2013-01-03 05:18:00,34.9,31.6,30.34,WNW,303,4.0,7.0,88,0.00,,,0.00,meteohub,2013-01-03 04:18:00,
2013-01-03 05:23:00,34.9,31.6,30.33,WSW,247,4.0,8.0,88,0.00,,,0.00,meteohub,2013-01-03 04:23:00,
2013-01-03 05:28:00,34.9,31.6,30.33,NE,52,4.0,8.0,88,0.00,,,0.00,meteohub,2013-01-03 04:28:00,
2013-01-03 05:33:00,34.9,31.6,30.32,SSW,207,2.0,7.0,88,0.00,,,0.00,meteohub,2013-01-03 04:33:00,
2013-01-03 05:38:00,34.9,31.6,30.33,NW,318,3.0,8.0,88,0.00,,,0.00,meteohub,2013-01-03 04:38:00,
2013-01-03 05:43:00,34.9,31.5,30.32,South,184,5.0,8.0,87,0.00,,,0.00,meteohub,2013-01-03 04:43:00,
2013-01-03 05:48:00,35.1,31.6,30.32,NW,316,6.0,8.0,87,0.00,,,0.00,meteohub,2013-01-03 04:48:00,
2013-01-03 05:54:00,35.1,31.6,30.32,SSW,200,2.0,8.0,87,0.00,,,0.00,meteohub,2013-01-03 04:54:00,
2013-01-03 05:59:00,35.1,31.6,30.33,SSW,199,2.0,7.0,87,0.00,,,0.00,meteohub,2013-01-03 04:59:00,
2013-01-03 06:03:00,35.1,31.6,30.33,SW,217,3.0,7.0,87,0.00,,,0.00,meteohub,2013-01-03 05:03:00,
2013-01-03 06:04:00,35.1,31.6,30.32,WSW,255,4.0,7.0,87,0.00,,,0.00,meteohub,2013-01-03 05:04:00,
2013-01-03 06:10:00,35.2,31.8,30.32,NNW,347,1.0,8.0,87,0.00,,,0.00,meteohub,2013-01-03 05:10:00,
2013-01-03 06:15:00,35.2,31.8,30.32,West,261,5.0,9.0,87,0.00,,,0.00,meteohub,2013-01-03 05:15:00,
2013-01-03 06:20:00,35.2,31.8,30.32,SW,216,2.0,9.0,87,0.00,,,0.00,meteohub,2013-01-03 05:20:00,
2013-01-03 06:25:00,35.2,31.8,30.32,South,180,1.0,9.0,87,0.00,,,0.00,meteohub,2013-01-03 05:25:00,
2013-01-03 06:30:00,35.2,31.8,30.32,NW,311,1.0,6.0,87,0.00,,,0.00,meteohub,2013-01-03 05:30:00,
2013-01-03 06:35:00,35.2,31.8,30.31,SSE,153,4.0,8.0,87,0.00,,,0.00,meteohub,2013-01-03 05:35:00,
2013-01-03 06:40:00,35.2,31.8,30.32,SSW,193,2.0,8.0,87,0.00,,,0.00,meteohub,2013-01-03 05:40:00,
2013-01-03 06:45:00,35.4,32.0,30.31,South,186,2.0,8.0,87,0.00,,,0.00,meteohub,2013-01-03 05:45:00,
2013-01-03 06:51:00,35.4,32.0,30.31,NNW,332,1.0,8.0,87,0.00,,,0.00,meteohub,2013-01-03 05:51:00,
2013-01-03 06:56:00,35.4,32.0,30.31,SE,124,2.0,9.0,87,0.00,,,0.00,meteohub,2013-01-03 05:56:00,
2013-01-03 07:01:00,35.4,32.0,30.30,SW,234,4.0,9.0,87,0.00,,,0.00,meteohub,2013-01-03 06:01:00,
2013-01-03 07:06:00,35.4,32.0,30.30,East,85,4.0,9.0,87,0.00,,,0.00,meteohub,2013-01-03 06:06:00,
2013-01-03 07:18:00,35.4,32.0,30.31,North,355,2.0,9.0,87,0.00,,,0.00,meteohub,2013-01-03 06:18:00,
2013-01-03 07:23:00,35.4,32.0,30.31,North,5,3.0,11.0,87,0.00,,,0.00,meteohub,2013-01-03 06:23:00,
2013-01-03 07:28:00,35.6,32.2,30.30,West,278,1.0,11.0,87,0.00,,,0.00,meteohub,2013-01-03 06:28:00,
2013-01-03 07:33:00,35.6,32.2,30.30,NNW,336,1.0,10.0,87,0.00,,,0.00,meteohub,2013-01-03 06:33:00,
2013-01-03 07:38:00,35.8,32.0,30.30,WSW,254,3.0,10.0,86,0.00,,,0.00,meteohub,2013-01-03 06:38:00,
2013-01-03 07:44:00,35.8,32.0,30.30,ENE,63,4.0,7.0,86,0.00,,,0.00,meteohub,2013-01-03 06:44:00,
2013-01-03 07:49:00,36.0,32.2,30.30,NW,325,2.0,7.0,86,0.00,,,0.00,meteohub,2013-01-03 06:49:00,
2013-01-03 07:54:00,36.0,32.2,30.30,NNE,16,4.0,7.0,86,0.00,,,0.00,meteohub,2013-01-03 06:54:00,
2013-01-03 07:59:00,36.0,32.2,30.30,South,171,3.0,6.0,86,0.00,,,0.00,meteohub,2013-01-03 06:59:00,
2013-01-03 08:04:00,36.0,32.2,30.30,West,271,3.0,8.0,86,0.00,,,0.00,meteohub,2013-01-03 07:04:00,
2013-01-03 08:09:00,36.0,32.2,30.30,NNW,331,0.0,8.0,86,0.00,,,0.00,meteohub,2013-01-03 07:09:00,
2013-01-03 08:14:00,36.1,32.4,30.30,SSW,207,4.0,8.0,86,0.00,,,0.00,meteohub,2013-01-03 07:14:00,
2013-01-03 08:20:00,36.1,32.4,30.29,SW,223,1.0,8.0,86,0.00,,,0.00,meteohub,2013-01-03 07:20:00,
2013-01-03 08:25:00,36.3,32.5,30.29,NNW,338,2.0,9.0,86,0.00,,,0.00,meteohub,2013-01-03 07:25:00,
2013-01-03 08:30:00,36.5,32.4,30.30,NNW,332,5.0,10.0,85,0.00,,,0.00,meteohub,2013-01-03 07:30:00,
2013-01-03 08:35:00,36.7,32.5,30.30,North,349,2.0,10.0,85,0.00,,,0.00,meteohub,2013-01-03 07:35:00,
2013-01-03 08:40:00,36.7,32.5,30.30,ENE,65,2.0,10.0,85,0.00,,,0.00,meteohub,2013-01-03 07:40:00,
2013-01-03 08:45:00,36.9,32.5,30.30,NW,310,6.0,10.0,84,0.00,,,0.00,meteohub,2013-01-03 07:45:00,
2013-01-03 08:51:00,36.9,32.5,30.30,SSW,197,4.0,10.0,84,0.00,,,0.00,meteohub,2013-01-03 07:51:00,
2013-01-03 08:56:00,36.9,32.5,30.30,North,355,2.0,10.0,84,0.00,,,0.00,meteohub,2013-01-03 07:56:00,
2013-01-03 09:01:00,37.0,32.4,30.30,West,269,2.0,9.0,83,0.00,,,0.00,meteohub,2013-01-03 08:01:00,
2013-01-03 09:06:00,37.0,32.7,30.30,NW,324,5.0,9.0,84,0.00,,,0.00,meteohub,2013-01-03 08:06:00,
2013-01-03 09:11:00,37.0,32.7,30.30,SW,221,2.0,9.0,84,0.00,,,0.00,meteohub,2013-01-03 08:11:00,
2013-01-03 09:16:00,37.0,32.7,30.30,NNW,344,5.0,9.0,84,0.00,,,0.00,meteohub,2013-01-03 08:16:00,
2013-01-03 09:21:00,37.0,32.7,30.30,ENE,62,5.0,11.0,84,0.00,,,0.00,meteohub,2013-01-03 08:21:00,
2013-01-03 09:26:00,37.0,32.9,30.30,NNE,13,5.0,11.0,85,0.00,,,0.00,meteohub,2013-01-03 08:26:00,
2013-01-03 09:32:00,37.0,32.9,30.30,WSW,242,5.0,14.0,85,0.00,,,0.00,meteohub,2013-01-03 08:32:00,
2013-01-03 09:37:00,37.0,32.9,30.30,NNW,347,5.0,14.0,85,0.00,,,0.00,meteohub,2013-01-03 08:37:00,
2013-01-03 09:42:00,37.0,32.9,30.30,West,259,5.0,10.0,85,0.00,,,0.00,meteohub,2013-01-03 08:42:00,
2013-01-03 09:47:00,37.0,33.3,30.30,ESE,113,2.0,10.0,86,0.00,,,0.00,meteohub,2013-01-03 08:47:00,
2013-01-03 09:52:00,37.0,33.6,30.30,North,355,4.0,8.0,87,0.00,,,0.00,meteohub,2013-01-03 08:52:00,
2013-01-03 09:57:00,36.9,33.6,30.30,SSW,207,5.0,10.0,88,0.00,,,0.00,meteohub,2013-01-03 08:57:00,
2013-01-03 10:02:00,36.7,33.8,30.30,NE,43,1.0,10.0,89,0.01,,,0.01,meteohub,2013-01-03 09:02:00,
2013-01-03 10:07:00,36.5,33.8,30.31,WSW,245,2.0,10.0,90,0.01,,,0.01,meteohub,2013-01-03 09:07:00,
2013-01-03 10:12:00,36.3,34.0,30.30,NNW,328,2.0,10.0,91,0.01,,,0.01,meteohub,2013-01-03 09:12:00,
2013-01-03 10:18:00,36.3,34.0,30.30,SE,132,5.0,9.0,91,0.02,,,0.02,meteohub,2013-01-03 09:18:00,
2013-01-03 10:23:00,36.3,34.0,30.30,NE,49,5.0,9.0,91,0.02,,,0.02,meteohub,2013-01-03 09:23:00,
2013-01-03 10:28:00,36.3,34.2,30.30,SSW,198,6.0,10.0,92,0.02,,,0.02,meteohub,2013-01-03 09:28:00,
2013-01-03 10:33:00,36.3,34.2,30.29,North,5,3.0,10.0,92,0.02,,,0.02,meteohub,2013-01-03 09:33:00,
2013-01-03 10:38:00,36.3,34.2,30.30,NW,309,3.0,10.0,92,0.02,,,0.02,meteohub,2013-01-03 09:38:00,
2013-01-03 10:43:00,36.3,34.2,30.30,WSW,250,4.0,10.0,92,0.02,,,0.02,meteohub,2013-01-03 09:43:00,
2013-01-03 10:49:00,36.5,34.3,30.30,NE,47,5.0,10.0,92,0.02,,,0.02,meteohub,2013-01-03 09:49:00,
2013-01-03 10:54:00,36.7,34.5,30.30,WSW,246,4.0,10.0,92,0.02,,,0.02,meteohub,2013-01-03 09:54:00,
2013-01-03 10:59:00,36.7,34.5,30.30,SW,233,4.0,12.0,92,0.01,,,0.02,meteohub,2013-01-03 09:59:00,
2013-01-03 11:04:00,36.7,34.5,30.30,SSW,194,1.0,12.0,92,0.01,,,0.02,meteohub,2013-01-03 10:04:00,
2013-01-03 11:09:00,36.9,34.5,30.30,SSE,153,7.0,10.0,91,0.01,,,0.02,meteohub,2013-01-03 10:09:00,
2013-01-03 11:15:00,36.9,34.5,30.30,North,5,3.0,10.0,91,0.00,,,0.02,meteohub,2013-01-03 10:15:00,
2013-01-03 11:20:00,37.0,34.7,30.29,WSW,238,4.0,12.0,91,0.00,,,0.02,meteohub,2013-01-03 10:20:00,
2013-01-03 11:25:00,37.2,34.9,30.29,SSW,198,4.0,12.0,91,0.00,,,0.02,meteohub,2013-01-03 10:25:00,
2013-01-03 11:30:00,37.6,34.9,30.30,NW,318,6.0,8.0,90,0.00,,,0.02,meteohub,2013-01-03 10:30:00,
2013-01-03 11:35:00,37.6,34.9,30.29,NW,305,5.0,8.0,90,0.00,,,0.02,meteohub,2013-01-03 10:35:00,
2013-01-03 11:41:00,37.8,35.1,30.29,SSW,201,4.0,10.0,90,0.00,,,0.02,meteohub,2013-01-03 10:41:00,
2013-01-03 11:46:00,37.8,35.1,30.30,SSE,159,4.0,11.0,90,0.00,,,0.02,meteohub,2013-01-03 10:46:00,
2013-01-03 11:51:00,37.9,35.2,30.29,SSE,159,7.0,11.0,90,0.00,,,0.02,meteohub,2013-01-03 10:51:00,
2013-01-03 11:56:00,38.1,35.4,30.30,WNW,284,3.0,11.0,90,0.00,,,0.02,meteohub,2013-01-03 10:56:00,
2013-01-03 12:01:00,38.3,35.4,30.30,NNW,330,4.0,11.0,89,0.00,,,0.02,meteohub,2013-01-03 11:01:00,
2013-01-03 12:06:00,38.1,35.2,30.30,NNW,342,7.0,11.0,89,0.00,,,0.02,meteohub,2013-01-03 11:06:00,
2013-01-03 12:11:00,38.3,35.4,30.30,North,0,4.0,11.0,89,0.00,,,0.02,meteohub,2013-01-03 11:11:00,
2013-01-03 12:17:00,38.5,35.6,30.30,North,11,2.0,10.0,89,0.00,,,0.02,meteohub,2013-01-03 11:17:00,
2013-01-03 12:22:00,38.5,35.6,30.30,NW,317,2.0,10.0,89,0.00,,,0.02,meteohub,2013-01-03 11:22:00,
2013-01-03 12:27:00,38.3,35.4,30.30,NNW,341,3.0,10.0,89,0.00,,,0.02,meteohub,2013-01-03 11:27:00,
2013-01-03 12:32:00,38.3,35.4,30.30,SE,145,5.0,10.0,89,0.00,,,0.02,meteohub,2013-01-03 11:32:00,
2013-01-03 12:37:00,38.1,35.4,30.30,SE,137,4.0,8.0,90,0.00,,,0.02,meteohub,2013-01-03 11:37:00,
2013-01-03 12:42:00,38.1,35.4,30.29,NW,307,2.0,10.0,90,0.00,,,0.02,meteohub,2013-01-03 11:42:00,
2013-01-03 12:47:00,37.9,35.2,30.29,NNE,18,4.0,10.0,90,0.00,,,0.02,meteohub,2013-01-03 11:47:00,
2013-01-03 12:52:00,37.9,35.6,30.29,North,11,1.0,10.0,91,0.00,,,0.02,meteohub,2013-01-03 11:52:00,
2013-01-03 12:57:00,38.1,35.8,30.29,NE,35,5.0,10.0,91,0.00,,,0.02,meteohub,2013-01-03 11:57:00,
2013-01-03 13:02:00,38.1,35.8,30.28,NNW,342,6.0,10.0,91,0.00,,,0.02,meteohub,2013-01-03 12:02:00,
2013-01-03 13:07:00,38.5,35.8,30.28,SSE,153,6.0,10.0,90,0.00,,,0.02,meteohub,2013-01-03 12:07:00,
2013-01-03 13:12:00,38.5,35.8,30.27,SSE,157,5.0,12.0,90,0.00,,,0.02,meteohub,2013-01-03 12:12:00,
2013-01-03 13:17:00,38.7,36.0,30.27,SSE,164,8.0,12.0,90,0.00,,,0.02,meteohub,2013-01-03 12:17:00,
2013-01-03 13:22:00,38.8,36.1,30.28,East,85,3.0,14.0,90,0.00,,,0.02,meteohub,2013-01-03 12:22:00,
2013-01-03 13:28:00,39.0,36.1,30.27,WNW,290,4.0,14.0,89,0.00,,,0.02,meteohub,2013-01-03 12:28:00,
2013-01-03 13:33:00,39.0,36.1,30.27,East,88,5.0,14.0,89,0.00,,,0.02,meteohub,2013-01-03 12:33:00,
2013-01-03 13:38:00,39.0,36.1,30.27,ENE,61,1.0,10.0,89,0.00,,,0.02,meteohub,2013-01-03 12:38:00,
2013-01-03 13:43:00,39.0,36.1,30.28,NNE,15,1.0,10.0,89,0.00,,,0.02,meteohub,2013-01-03 12:43:00,
2013-01-03 13:48:00,39.0,36.1,30.27,West,260,6.0,11.0,89,0.00,,,0.02,meteohub,2013-01-03 12:48:00,
2013-01-03 13:53:00,39.2,36.3,30.27,WSW,238,4.0,11.0,89,0.00,,,0.02,meteohub,2013-01-03 12:53:00,
2013-01-03 13:58:00,39.2,36.3,30.28,SE,145,2.0,11.0,89,0.00,,,0.02,meteohub,2013-01-03 12:58:00,
2013-01-03 14:03:00,39.2,36.3,30.28,NW,317,2.0,11.0,89,0.00,,,0.02,meteohub,2013-01-03 13:03:00,
2013-01-03 14:08:00,39.4,36.5,30.28,ENE,65,3.0,11.0,89,0.00,,,0.02,meteohub,2013-01-03 13:08:00,
2013-01-03 14:13:00,39.4,36.5,30.29,SSW,197,6.0,12.0,89,0.00,,,0.02,meteohub,2013-01-03 13:13:00,
2013-01-03 14:19:00,39.4,36.7,30.28,South,172,2.0,12.0,90,0.00,,,0.02,meteohub,2013-01-03 13:19:00,
2013-01-03 14:24:00,39.4,36.7,30.29,ENE,74,1.0,12.0,90,0.00,,,0.02,meteohub,2013-01-03 13:24:00,
2013-01-03 14:29:00,39.4,36.7,30.29,SSE,156,3.0,11.0,90,0.00,,,0.02,meteohub,2013-01-03 13:29:00,
2013-01-03 14:34:00,39.4,36.7,30.29,SE,140,2.0,9.0,90,0.00,,,0.02,meteohub,2013-01-03 13:34:00,
2013-01-03 14:39:00,39.4,36.7,30.29,SE,145,2.0,10.0,90,0.00,,,0.02,meteohub,2013-01-03 13:39:00,
2013-01-03 14:44:00,39.6,36.9,30.29,WSW,255,3.0,10.0,90,0.00,,,0.02,meteohub,2013-01-03 13:44:00,
2013-01-03 14:49:00,39.6,36.9,30.29,NNW,332,2.0,9.0,90,0.00,,,0.02,meteohub,2013-01-03 13:49:00,
2013-01-03 14:54:00,39.4,36.7,30.28,NNW,338,2.0,10.0,90,0.00,,,0.02,meteohub,2013-01-03 13:54:00,
2013-01-03 14:59:00,39.4,36.7,30.29,NW,308,4.0,10.0,90,0.00,,,0.02,meteohub,2013-01-03 13:59:00,
2013-01-03 15:05:00,39.4,36.7,30.29,NNW,343,2.0,10.0,90,0.00,,,0.02,meteohub,2013-01-03 14:05:00,
2013-01-03 15:10:00,39.4,36.7,30.29,South,188,8.0,10.0,90,0.00,,,0.02,meteohub,2013-01-03 14:10:00,
2013-01-03 15:15:00,39.4,36.7,30.29,West,265,2.0,10.0,90,0.00,,,0.02,meteohub,2013-01-03 14:15:00,
2013-01-03 15:20:00,39.4,36.7,30.29,ESE,121,8.0,9.0,90,0.00,,,0.02,meteohub,2013-01-03 14:20:00,
2013-01-03 15:25:00,39.4,36.7,30.29,South,172,4.0,14.0,90,0.00,,,0.02,meteohub,2013-01-03 14:25:00,
2013-01-03 15:30:00,39.4,36.7,30.29,SSW,199,2.0,14.0,90,0.00,,,0.02,meteohub,2013-01-03 14:30:00,
2013-01-03 15:35:00,39.4,36.7,30.29,WSW,245,2.0,14.0,90,0.00,,,0.02,meteohub,2013-01-03 14:35:00,
2013-01-03 15:40:00,39.4,36.7,30.30,NNW,341,1.0,9.0,90,0.00,,,0.02,meteohub,2013-01-03 14:40:00,
2013-01-03 15:45:00,39.4,36.7,30.30,NNE,21,4.0,9.0,90,0.00,,,0.02,meteohub,2013-01-03 14:45:00,
2013-01-03 15:51:00,39.4,36.7,30.30,SW,216,3.0,11.0,90,0.00,,,0.02,meteohub,2013-01-03 14:51:00,
2013-01-03 15:56:00,39.4,36.7,30.30,SSE,160,1.0,11.0,90,0.00,,,0.02,meteohub,2013-01-03 14:56:00,
2013-01-03 16:01:00,39.4,36.7,30.31,NNE,28,2.0,9.0,90,0.00,,,0.02,meteohub,2013-01-03 15:01:00,
2013-01-03 16:06:00,39.6,36.9,30.31,West,271,1.0,9.0,90,0.00,,,0.02,meteohub,2013-01-03 15:06:00,
2013-01-03 16:11:00,39.6,36.9,30.31,NNE,30,4.0,9.0,90,0.00,,,0.02,meteohub,2013-01-03 15:11:00,
2013-01-03 16:16:00,39.7,37.0,30.32,NW,309,1.0,9.0,90,0.00,,,0.02,meteohub,2013-01-03 15:16:00,
2013-01-03 16:21:00,39.7,37.0,30.32,SE,127,1.0,8.0,90,0.00,,,0.02,meteohub,2013-01-03 15:21:00,
2013-01-03 16:27:00,39.9,37.2,30.32,NNW,340,4.0,7.0,90,0.00,,,0.02,meteohub,2013-01-03 15:27:00,
2013-01-03 16:32:00,39.9,37.2,30.32,NNE,32,2.0,7.0,90,0.00,,,0.02,meteohub,2013-01-03 15:32:00,
2013-01-03 16:37:00,40.1,37.4,30.32,NE,37,3.0,10.0,90,0.00,,,0.02,meteohub,2013-01-03 15:37:00,
2013-01-03 16:42:00,40.3,37.6,30.32,ENE,61,5.0,10.0,90,0.00,,,0.02,meteohub,2013-01-03 15:42:00,
2013-01-03 16:47:00,40.3,37.2,30.33,SSE,159,7.0,8.0,89,0.00,,,0.02,meteohub,2013-01-03 15:47:00,
2013-01-03 16:52:00,40.5,37.4,30.33,WNW,292,5.0,8.0,89,0.00,,,0.02,meteohub,2013-01-03 15:52:00,
2013-01-03 16:57:00,40.5,37.4,30.32,ENE,70,6.0,8.0,89,0.00,,,0.02,meteohub,2013-01-03 15:57:00,
2013-01-03 17:02:00,40.3,37.6,30.32,NW,306,3.0,8.0,90,0.00,,,0.02,meteohub,2013-01-03 16:02:00,
2013-01-03 17:07:00,40.3,37.6,30.32,ESE,109,4.0,8.0,90,0.00,,,0.02,meteohub,2013-01-03 16:07:00,
2013-01-03 17:12:00,40.3,37.6,30.33,North,350,1.0,8.0,90,0.00,,,0.02,meteohub,2013-01-03 16:12:00,
2013-01-03 17:17:00,40.3,37.6,30.33,NNW,336,5.0,6.0,90,0.00,,,0.02,meteohub,2013-01-03 16:17:00,
2013-01-03 17:22:00,40.5,37.8,30.33,NNE,15,1.0,8.0,90,0.00,,,0.02,meteohub,2013-01-03 16:22:00,
2013-01-03 17:27:00,40.5,37.4,30.33,East,80,2.0,8.0,89,0.00,,,0.02,meteohub,2013-01-03 16:27:00,
2013-01-03 17:32:00,40.5,37.4,30.33,North,355,2.0,9.0,89,0.00,,,0.02,meteohub,2013-01-03 16:32:00,
2013-01-03 17:37:00,40.6,37.6,30.33,SSE,148,1.0,9.0,89,0.00,,,0.02,meteohub,2013-01-03 16:37:00,
2013-01-03 17:42:00,40.6,37.6,30.33,WSW,252,2.0,9.0,89,0.00,,,0.02,meteohub,2013-01-03 16:42:00,
2013-01-03 17:47:00,40.8,37.8,30.33,SE,140,10.0,11.0,89,0.00,,,0.02,meteohub,2013-01-03 16:47:00,
2013-01-03 17:52:00,41.0,37.9,30.33,WNW,296,2.0,13.0,89,0.00,,,0.02,meteohub,2013-01-03 16:52:00,
2013-01-03 17:57:00,41.0,37.9,30.33,South,169,4.0,13.0,89,0.00,,,0.02,meteohub,2013-01-03 16:57:00,
2013-01-03 18:02:00,41.0,37.9,30.33,East,84,1.0,13.0,89,0.00,,,0.02,meteohub,2013-01-03 17:02:00,
2013-01-03 18:07:00,41.0,37.9,30.33,NE,51,4.0,8.0,89,0.00,,,0.02,meteohub,2013-01-03 17:07:00,
2013-01-03 18:12:00,41.0,38.3,30.33,North,349,1.0,8.0,90,0.00,,,0.02,meteohub,2013-01-03 17:12:00,
2013-01-03 18:17:00,41.0,38.3,30.33,North,350,2.0,8.0,90,0.00,,,0.02,meteohub,2013-01-03 17:17:00,
2013-01-03 18:22:00,40.8,38.1,30.34,West,261,1.0,8.0,90,0.00,,,0.02,meteohub,2013-01-03 17:22:00,
2013-01-03 18:27:00,40.8,38.1,30.33,NNW,340,2.0,8.0,90,0.00,,,0.02,meteohub,2013-01-03 17:27:00,
2013-01-03 18:32:00,40.8,38.1,30.33,WSW,240,5.0,7.0,90,0.00,,,0.02,meteohub,2013-01-03 17:32:00,
2013-01-03 18:37:00,40.6,38.3,30.34,NW,317,2.0,7.0,91,0.00,,,0.02,meteohub,2013-01-03 17:37:00,
2013-01-03 18:42:00,40.6,38.3,30.34,SSW,198,4.0,8.0,91,0.00,,,0.02,meteohub,2013-01-03 17:42:00,
2013-01-03 18:47:00,40.6,38.3,30.34,SW,235,2.0,9.0,91,0.00,,,0.02,meteohub,2013-01-03 17:47:00,
2013-01-03 18:52:00,40.6,38.3,30.34,SSE,153,3.0,9.0,91,0.00,,,0.02,meteohub,2013-01-03 17:52:00,
2013-01-03 18:57:00,40.6,38.3,30.34,SE,144,2.0,14.0,91,0.00,,,0.02,meteohub,2013-01-03 17:57:00,
2013-01-03 19:02:00,40.6,38.3,30.35,SE,146,6.0,14.0,91,0.00,,,0.02,meteohub,2013-01-03 18:02:00,
2013-01-03 19:07:00,40.6,38.3,30.34,SSE,147,5.0,14.0,91,0.00,,,0.02,meteohub,2013-01-03 18:07:00,
2013-01-03 19:13:00,40.6,38.3,30.34,SSE,168,1.0,10.0,91,0.00,,,0.02,meteohub,2013-01-03 18:13:00,
2013-01-03 19:18:00,40.6,38.3,30.34,NNE,28,1.0,10.0,91,0.00,,,0.02,meteohub,2013-01-03 18:18:00,
2013-01-03 19:23:00,40.6,38.3,30.35,NNE,15,2.0,8.0,91,0.00,,,0.02,meteohub,2013-01-03 18:23:00,
2013-01-03 19:28:00,40.8,38.5,30.35,NW,305,8.0,8.0,91,0.00,,,0.02,meteohub,2013-01-03 18:28:00,
2013-01-03 19:33:00,40.8,38.5,30.35,SSW,210,3.0,8.0,91,0.00,,,0.02,meteohub,2013-01-03 18:33:00,
2013-01-03 19:38:00,40.8,38.5,30.35,NNE,26,2.0,8.0,91,0.00,,,0.02,meteohub,2013-01-03 18:38:00,
2013-01-03 19:43:00,40.8,38.5,30.35,South,182,7.0,8.0,91,0.00,,,0.02,meteohub,2013-01-03 18:43:00,
2013-01-03 19:48:00,40.8,38.5,30.35,SSE,166,3.0,7.0,91,0.00,,,0.02,meteohub,2013-01-03 18:48:00,
2013-01-03 19:53:00,41.0,38.7,30.35,NW,311,2.0,10.0,91,0.00,,,0.02,meteohub,2013-01-03 18:53:00,
2013-01-03 19:59:00,41.0,38.7,30.35,North,350,2.0,10.0,91,0.00,,,0.02,meteohub,2013-01-03 18:59:00,
2013-01-03 20:04:00,41.0,38.8,30.35,North,355,4.0,12.0,92,0.00,,,0.02,meteohub,2013-01-03 19:04:00,
2013-01-03 20:09:00,41.0,38.8,30.35,NE,38,2.0,12.0,92,0.00,,,0.02,meteohub,2013-01-03 19:09:00,
2013-01-03 20:14:00,40.8,38.5,30.35,NNW,328,2.0,12.0,91,0.00,,,0.02,meteohub,2013-01-03 19:14:00,
2013-01-03 20:55:00,41.0,38.8,30.35,SSW,199,2.0,12.0,92,0.00,,,0.02,meteohub,2013-01-03 19:55:00,
2013-01-03 21:00:00,41.2,39.0,30.35,SW,227,5.0,10.0,92,0.00,,,0.02,meteohub,2013-01-03 20:00:00,
2013-01-03 21:06:00,41.2,39.0,30.34,SW,217,4.0,10.0,92,0.00,,,0.02,meteohub,2013-01-03 20:06:00,
2013-01-03 21:11:00,41.2,39.0,30.35,NNW,334,6.0,8.0,92,0.00,,,0.02,meteohub,2013-01-03 20:11:00,
2013-01-03 21:16:00,41.4,39.2,30.34,WSW,248,2.0,8.0,92,0.00,,,0.02,meteohub,2013-01-03 20:16:00,
2013-01-03 21:21:00,41.4,39.0,30.34,WNW,294,5.0,7.0,91,0.00,,,0.02,meteohub,2013-01-03 20:21:00,
2013-01-03 21:26:00,41.5,39.2,30.34,SW,234,3.0,7.0,91,0.00,,,0.02,meteohub,2013-01-03 20:26:00,
2013-01-03 21:31:00,41.5,39.2,30.34,SW,227,0.0,9.0,91,0.00,,,0.02,meteohub,2013-01-03 20:31:00,
2013-01-03 21:36:00,41.7,39.2,30.35,West,261,1.0,9.0,91,0.00,,,0.02,meteohub,2013-01-03 20:36:00,
2013-01-03 21:41:00,41.7,39.2,30.35,NNW,346,2.0,9.0,91,0.00,,,0.02,meteohub,2013-01-03 20:41:00,
2013-01-03 21:47:00,41.7,39.2,30.35,West,272,3.0,9.0,91,0.00,,,0.02,meteohub,2013-01-03 20:47:00,
2013-01-03 21:52:00,41.7,39.2,30.35,NW,325,1.0,8.0,91,0.00,,,0.02,meteohub,2013-01-03 20:52:00,
2013-01-03 21:57:00,41.7,39.2,30.35,WNW,286,2.0,8.0,91,0.00,,,0.02,meteohub,2013-01-03 20:57:00,
2013-01-03 22:02:00,41.9,39.4,30.35,NNE,20,2.0,7.0,91,0.00,,,0.02,meteohub,2013-01-03 21:02:00,
2013-01-03 22:07:00,41.9,39.4,30.35,West,260,1.0,7.0,91,0.00,,,0.02,meteohub,2013-01-03 21:07:00,
2013-01-03 22:12:00,42.1,39.6,30.35,WNW,294,4.0,7.0,91,0.00,,,0.02,meteohub,2013-01-03 21:12:00,
2013-01-03 22:17:00,41.9,39.4,30.35,NE,40,2.0,7.0,91,0.00,,,0.02,meteohub,2013-01-03 21:17:00,
2013-01-03 22:22:00,41.9,39.4,30.35,NNW,329,4.0,7.0,91,0.00,,,0.02,meteohub,2013-01-03 21:22:00,
2013-01-03 22:27:00,41.7,39.2,30.35,North,5,2.0,7.0,91,0.00,,,0.02,meteohub,2013-01-03 21:27:00,
2013-01-03 22:32:00,41.7,39.2,30.36,WNW,296,4.0,7.0,91,0.00,,,0.02,meteohub,2013-01-03 21:32:00,
2013-01-03 22:37:00,41.7,39.2,30.35,NNE,15,1.0,7.0,91,0.00,,,0.02,meteohub,2013-01-03 21:37:00,
2013-01-03 22:42:00,41.7,39.2,30.35,WSW,246,3.0,7.0,91,0.00,,,0.02,meteohub,2013-01-03 21:42:00,
2013-01-03 22:47:00,41.7,39.2,30.35,NNW,342,2.0,10.0,91,0.00,,,0.02,meteohub,2013-01-03 21:47:00,
2013-01-03 22:52:00,41.7,39.2,30.35,WNW,298,2.0,10.0,91,0.00,,,0.02,meteohub,2013-01-03 21:52:00,
2013-01-03 22:57:00,41.7,39.2,30.35,NNE,28,2.0,10.0,91,0.00,,,0.02,meteohub,2013-01-03 21:57:00,
2013-01-03 23:03:00,41.7,39.2,30.35,WNW,300,1.0,7.0,91,0.00,,,0.02,meteohub,2013-01-03 22:03:00,
2013-01-03 23:08:00,41.9,39.4,30.35,North,355,2.0,7.0,91,0.00,,,0.02,meteohub,2013-01-03 22:08:00,
2013-01-03 23:13:00,41.9,39.4,30.35,NNE,23,2.0,7.0,91,0.00,,,0.02,meteohub,2013-01-03 22:13:00,
2013-01-03 23:18:00,41.9,39.4,30.35,ESE,106,2.0,9.0,91,0.00,,,0.02,meteohub,2013-01-03 22:18:00,
2013-01-03 23:23:00,41.9,39.4,30.35,WNW,286,3.0,9.0,91,0.00,,,0.02,meteohub,2013-01-03 22:23:00,
2013-01-03 23:28:00,41.9,39.4,30.35,West,279,1.0,6.0,91,0.00,,,0.02,meteohub,2013-01-03 22:28:00,
2013-01-03 23:33:00,42.1,39.6,30.35,NNE,12,2.0,6.0,91,0.00,,,0.02,meteohub,2013-01-03 22:33:00,
2013-01-03 23:38:00,42.3,39.7,30.35,North,5,5.0,6.0,91,0.00,,,0.02,meteohub,2013-01-03 22:38:00,
2013-01-03 23:43:00,42.3,39.7,30.34,NNE,26,4.0,7.0,91,0.00,,,0.02,meteohub,2013-01-03 22:43:00,
2013-01-03 23:49:00,42.4,39.9,30.34,SSE,165,5.0,7.0,91,0.00,,,0.02,meteohub,2013-01-03 22:49:00,
2013-01-03 23:54:00,42.8,40.1,30.34,ENE,57,0.0,7.0,90,0.00,,,0.02,meteohub,2013-01-03 22:54:00,
2013-01-03 23:59:00,43.0,40.3,30.35,NNE,20,0.0,7.0,90,0.00,,,0.02,meteohub,2013-01-03 22:59:00,